Location: Forst
(46.9333°N, 15.4333°E)
Time: 20:24:57
(UTC+00:00)

ADEOS Rocket - Pass Details

Date: 01 December 2020
Orbit: 858 x 1307 km, 98.7° (Epoch: 27 January)

Event Time Altitude Azimuth Distance (km) Brightness Sun altitude
Rises 16:06:38 0° 12° (NNE) 4,262 6.0 -9.2°
Reaches altitude 10° 16:09:19 10° 11° (N) 3,314 5.5 -9.7°
Maximum altitude 16:17:04 73° 289° (WNW) 1,364 3.9 -10.9°
Drops below altitude 10° 16:24:41 10° 207° (SSW) 3,265 6.4 -12.1°
Sets 16:27:19 0° 205° (SSW) 4,195 7.0 -12.5°
